Weather History for Rochester, MN

Change the Weather History Date:

Thursday, April 4, 2013

  Actual Average Record
Temperature  
Mean Temperature 42 °F 41 °F  
Max Temperature 50 °F 51 °F 77 °F (1942)
Min Temperature 33 °F 32 °F 6 °F (1995)
Degree Days  
Heating Degree Days 23 24  
Month to date heating degree days 133 98  
Since 1 July heating degree days 6850 6970  
Cooling Degree Days 0 0  
Month to date cooling degree days 0 0  
Year to date cooling degree days 0 0  
Moisture  
Dew Point 29 °F    
Average Humidity 63    
Maximum Humidity 76    
Minimum Humidity 50    
Precipitation  
Precipitation 0.02 in 0.08 in 1.03 in (1887)
Month to date precipitation 0.02 0.33  
Year to date precipitation 4.87 3.90  
Snow  
Snow 0.00 in 0.10 in 4.50 in (1945)
Month to date snowfall 0.0 0.6  
Since 1 July snowfall 55.3 49.2  
Snow Depth T in    
Sea Level Pressure  
Sea Level Pressure 30.11 in    
Wind  
Wind Speed 14 mph (West)    
Max Wind Speed 23 mph    
Max Gust Speed 29 mph    
Visibility 10 miles    
Events Rain    
T = Trace of Precipitation, MM = Missing Value Source: NWS Daily Summary

Daily Weather History Graph

Daily Weather History Graph

Search for Another Location

Airport:

Trip Planner

Search our weather history database for the weather conditions in past years. The results will help you decide how hot, cold, wet, or windy it might be!

Date:

Astronomy

Apr. 04, 2013 Rise Set
Actual Time 6:45 AM CDT 7:40 PM CDT
Civil Twilight 6:16 AM CDT 8:10 PM CDT
Nautical Twilight 5:41 AM CDT 8:45 PM CDT
Astronomical Twilight 5:05 AM CDT 9:21 PM CDT
Moon 3:23 AM CDT (4/4) 1:49 PM CDT (4/4)
Length of Visible Light 13h 53m
Length of Day
12h 55m
Waning Crescent, 33% of the Moon is Illuminated
Apr 4
Waning Crescent
Apr 10
New
Apr 18
First Quarter
Apr 25
Full
May 2
Last Quarter

Hourly Weather History & Observations

Time (CDT) Temp. Windchill Dew Point Humidity Pressure Visibility Wind Dir Wind Speed Gust Speed Precip Events Conditions
12:54 AM 37.0 °F 26.7 °F 23.0 °F 57% 30.17 in 10.0 mi South 19.6 mph 26.5 mph N/A   Clear
1:54 AM 36.0 °F 25.3 °F 23.0 °F 59% 30.16 in 10.0 mi SSW 19.6 mph - N/A   Clear
2:54 AM 36.0 °F 26.0 °F 23.0 °F 59% 30.14 in 10.0 mi SSW 17.3 mph 26.5 mph N/A   Clear
3:54 AM 37.0 °F 27.0 °F 24.1 °F 59% 30.13 in 10.0 mi SSW 18.4 mph - N/A   Clear
4:54 AM 36.0 °F 25.3 °F 25.0 °F 64% 30.11 in 10.0 mi SSW 19.6 mph - N/A   Clear
5:54 AM 36.0 °F 25.6 °F 26.1 °F 67% 30.09 in 10.0 mi SSW 18.4 mph - N/A   Clear
6:54 AM 36.0 °F 26.0 °F 26.1 °F 67% 30.09 in 10.0 mi SSW 17.3 mph - N/A   Partly Cloudy
7:54 AM 37.0 °F 27.7 °F 27.0 °F 67% 30.09 in 10.0 mi SW 16.1 mph - N/A   Scattered Clouds
8:54 AM 37.0 °F 28.1 °F 28.9 °F 73% 30.10 in 9.0 mi SW 15.0 mph - N/A   Mostly Cloudy
9:54 AM 37.9 °F 30.0 °F 30.0 °F 73% 30.10 in 9.0 mi WSW 12.7 mph - 0.00 in Rain Light Rain
10:54 AM 39.0 °F 32.3 °F 33.1 °F 79% 30.08 in 8.0 mi WSW 10.4 mph - 0.02 in   Mostly Cloudy
11:54 AM 41.0 °F 32.5 °F 34.0 °F 76% 30.09 in 7.0 mi West 17.3 mph - N/A   Clear
12:54 PM 45.0 °F 39.3 °F 37.0 °F 74% 30.09 in 8.0 mi WNW 11.5 mph - N/A   Clear
1:54 PM 46.9 °F - 37.0 °F 68% 30.09 in 8.0 mi NW 16.1 mph - N/A   Partly Cloudy
2:54 PM 48.9 °F - 36.0 °F 61% 30.07 in 9.0 mi NNW 10.4 mph - N/A   Partly Cloudy
3:54 PM 48.9 °F - 35.1 °F 59% 30.07 in 10.0 mi NNW 16.1 mph - N/A   Clear
4:54 PM 48.9 °F - 35.1 °F 59% 30.07 in 10.0 mi NW 15.0 mph - N/A   Clear
5:54 PM 48.0 °F - 30.0 °F 50% 30.08 in 10.0 mi NNW 13.8 mph - N/A   Clear
6:54 PM 44.1 °F 38.1 °F 30.9 °F 60% 30.09 in 10.0 mi NW 11.5 mph - N/A   Clear
7:54 PM 39.0 °F 32.3 °F 28.9 °F 67% 30.11 in 10.0 mi NW 10.4 mph - N/A   Clear
8:54 PM 37.0 °F 31.6 °F 28.0 °F 70% 30.13 in 10.0 mi NW 6.9 mph - N/A   Clear
9:54 PM 36.0 °F 29.0 °F 28.0 °F 73% 30.15 in 10.0 mi NW 9.2 mph - N/A   Clear
10:54 PM 35.1 °F 28.6 °F 28.0 °F 76% 30.17 in 10.0 mi NW 8.1 mph - N/A   Clear
11:54 PM 33.1 °F 25.5 °F 27.0 °F 78% 30.17 in 10.0 mi NW 9.2 mph - N/A   Clear